Time,TemperatureF,DewpointF,PressureIn,WindDirection,WindDirectionDegrees,WindSpeedMPH,WindSpeedGustMPH,Humidity,HourlyPrecipIn,Conditions,Clouds,dailyrainin,SolarRadiationWatts/m^2,SoftwareType,DateUTC
2013-04-29 00:00:00,54.0,50.0,-100.00,SSE,157,3.0,-999.0,86,-99.99,,,-99.99,0.000000,,2013-04-29 04:00:00,
2013-04-29 00:43:00,54.0,50.0,-100.00,SSE,157,3.0,-999.0,86,-99.99,,,-99.99,0.000000,,2013-04-29 04:43:00,
2013-04-29 00:52:00,54.0,50.0,-100.00,SSE,157,3.0,-999.0,86,-99.99,,,-99.99,0.000000,,2013-04-29 04:52:00,
2013-04-29 01:00:00,53.0,50.0,-100.00,East,90,1.0,-999.0,90,-99.99,,,-99.99,0.000000,,2013-04-29 05:00:00,
2013-04-29 01:42:00,53.0,50.0,-100.00,East,90,1.0,-999.0,90,-99.99,,,-99.99,0.000000,,2013-04-29 05:42:00,
2013-04-29 01:52:00,53.0,50.0,-100.00,East,90,1.0,-999.0,90,-99.99,,,-99.99,0.000000,,2013-04-29 05:52:00,
2013-04-29 02:00:00,52.0,50.0,-100.00,East,90,1.0,-999.0,90,-99.99,,,-99.99,0.000000,,2013-04-29 06:00:00,
2013-04-29 02:42:00,52.0,50.0,-100.00,East,90,1.0,-999.0,90,-99.99,,,-99.99,0.000000,,2013-04-29 06:42:00,
2013-04-29 02:52:00,52.0,50.0,-100.00,East,90,1.0,-999.0,90,-99.99,,,-99.99,0.000000,,2013-04-29 06:52:00,
2013-04-29 03:00:00,52.0,50.0,-100.00,SE,135,0.0,-999.0,91,-99.99,,,-99.99,0.000000,,2013-04-29 07:00:00,
2013-04-29 03:42:00,52.0,50.0,-100.00,SE,135,0.0,-999.0,91,-99.99,,,-99.99,0.000000,,2013-04-29 07:42:00,
2013-04-29 03:52:00,52.0,50.0,-100.00,SE,135,0.0,-999.0,91,-99.99,,,-99.99,0.000000,,2013-04-29 07:52:00,
2013-04-29 04:00:00,51.0,49.0,-100.00,SSW,202,2.0,-999.0,93,-99.99,,,-99.99,0.000000,,2013-04-29 08:00:00,
2013-04-29 04:42:00,51.0,49.0,-100.00,SSW,202,2.0,-999.0,93,-99.99,,,-99.99,0.000000,,2013-04-29 08:42:00,
2013-04-29 04:52:00,51.0,49.0,-100.00,SSW,202,2.0,-999.0,93,-99.99,,,-99.99,0.000000,,2013-04-29 08:52:00,
2013-04-29 05:00:00,48.0,47.0,-100.00,SW,225,2.0,-999.0,94,-99.99,,,-99.99,0.000000,,2013-04-29 09:00:00,
2013-04-29 05:42:00,48.0,47.0,-100.00,SW,225,2.0,-999.0,94,-99.99,,,-99.99,0.000000,,2013-04-29 09:42:00,
2013-04-29 05:53:00,48.0,47.0,-100.00,SW,225,2.0,-999.0,94,-99.99,,,-99.99,0.000000,,2013-04-29 09:53:00,
2013-04-29 06:00:00,45.0,44.0,-100.00,East,90,1.0,-999.0,94,-99.99,,,-99.99,0.000000,,2013-04-29 10:00:00,
2013-04-29 06:42:00,45.0,44.0,-100.00,East,90,1.0,-999.0,94,-99.99,,,-99.99,0.000000,,2013-04-29 10:42:00,
2013-04-29 06:52:00,45.0,44.0,-100.00,East,90,1.0,-999.0,94,-99.99,,,-99.99,0.000000,,2013-04-29 10:52:00,
2013-04-29 07:00:00,44.0,42.0,-100.00,ENE,67,0.0,-999.0,95,-99.99,,,-99.99,3.480000,,2013-04-29 11:00:00,
2013-04-29 07:42:00,44.0,42.0,-100.00,ENE,67,0.0,-999.0,95,-99.99,,,-99.99,3.480000,,2013-04-29 11:42:00,
2013-04-29 07:52:00,44.0,42.0,-100.00,ENE,67,0.0,-999.0,95,-99.99,,,-99.99,3.480000,,2013-04-29 11:52:00,
2013-04-29 09:00:00,46.0,46.0,-100.00,SSE,157,4.0,-999.0,97,-99.99,,,-99.99,116.000000,,2013-04-29 13:00:00,
2013-04-29 09:42:00,46.0,46.0,-100.00,SSE,157,4.0,-999.0,97,-99.99,,,-99.99,116.000000,,2013-04-29 13:42:00,
2013-04-29 09:52:00,46.0,46.0,-100.00,SSE,157,4.0,-999.0,97,-99.99,,,-99.99,116.000000,,2013-04-29 13:52:00,
2013-04-29 10:00:00,49.0,48.0,-100.00,SSE,157,6.0,-999.0,99,-99.99,,,-99.99,187.919998,,2013-04-29 14:00:00,
2013-04-29 10:42:00,49.0,48.0,-100.00,SSE,157,6.0,-999.0,99,-99.99,,,-99.99,187.919998,,2013-04-29 14:42:00,
2013-04-29 10:52:00,49.0,48.0,-100.00,SSE,157,6.0,-999.0,99,-99.99,,,-99.99,187.919998,,2013-04-29 14:52:00,
2013-04-29 11:00:00,52.0,52.0,-100.00,SSE,157,4.0,-999.0,98,-99.99,,,-99.99,407.160004,,2013-04-29 15:00:00,
2013-04-29 11:43:00,52.0,52.0,-100.00,SSE,157,4.0,-999.0,98,-99.99,,,-99.99,407.160004,,2013-04-29 15:43:00,
2013-04-29 11:53:00,52.0,52.0,-100.00,SSE,157,4.0,-999.0,98,-99.99,,,-99.99,407.160004,,2013-04-29 15:53:00,
2013-04-29 12:00:00,60.0,52.0,-100.00,SSE,157,4.0,-999.0,76,-99.99,,,-99.99,618.280029,,2013-04-29 16:00:00,
2013-04-29 12:42:00,60.0,52.0,-100.00,SSE,157,4.0,-999.0,76,-99.99,,,-99.99,618.280029,,2013-04-29 16:42:00,
2013-04-29 12:52:00,60.0,52.0,-100.00,SSE,157,4.0,-999.0,76,-99.99,,,-99.99,618.280029,,2013-04-29 16:52:00,
2013-04-29 13:00:00,65.0,51.0,-100.00,South,180,6.0,-999.0,61,-99.99,,,-99.99,643.799988,,2013-04-29 17:00:00,
2013-04-29 13:42:00,65.0,51.0,-100.00,South,180,6.0,-999.0,61,-99.99,,,-99.99,643.799988,,2013-04-29 17:42:00,
2013-04-29 13:52:00,65.0,51.0,-100.00,South,180,6.0,-999.0,61,-99.99,,,-99.99,643.799988,,2013-04-29 17:52:00,
2013-04-29 14:00:00,67.0,50.0,-100.00,SSW,202,8.0,-999.0,55,-99.99,,,-99.99,609.000000,,2013-04-29 18:00:00,
2013-04-29 14:42:00,67.0,50.0,-100.00,SSW,202,8.0,-999.0,55,-99.99,,,-99.99,609.000000,,2013-04-29 18:42:00,
2013-04-29 14:52:00,67.0,50.0,-100.00,SSW,202,8.0,-999.0,55,-99.99,,,-99.99,609.000000,,2013-04-29 18:52:00,
2013-04-29 16:00:00,67.0,50.0,-100.00,SSW,202,11.0,-999.0,55,-99.99,,,-99.99,425.720001,,2013-04-29 20:00:00,
2013-04-29 16:43:00,67.0,50.0,-100.00,SSW,202,11.0,-999.0,55,-99.99,,,-99.99,425.720001,,2013-04-29 20:43:00,
2013-04-29 16:52:00,67.0,50.0,-100.00,SSW,202,11.0,-999.0,55,-99.99,,,-99.99,425.720001,,2013-04-29 20:52:00,
2013-04-29 18:00:00,64.0,50.0,-100.00,SSW,202,10.0,-999.0,60,-99.99,,,-99.99,156.600006,,2013-04-29 22:00:00,
2013-04-29 18:42:00,64.0,50.0,-100.00,SSW,202,10.0,-999.0,60,-99.99,,,-99.99,156.600006,,2013-04-29 22:42:00,
2013-04-29 18:53:00,64.0,50.0,-100.00,SSW,202,10.0,-999.0,60,-99.99,,,-99.99,156.600006,,2013-04-29 22:53:00,
2013-04-29 19:00:00,63.0,50.0,-100.00,SSE,157,5.0,-999.0,61,-99.99,,,-99.99,70.760002,,2013-04-29 23:00:00,
2013-04-29 19:42:00,63.0,50.0,-100.00,SSE,157,5.0,-999.0,61,-99.99,,,-99.99,70.760002,,2013-04-29 23:42:00,
2013-04-29 19:53:00,63.0,50.0,-100.00,SSE,157,5.0,-999.0,61,-99.99,,,-99.99,70.760002,,2013-04-29 23:53:00,